Regional Weather Roundup
Issued by NWS

Home | Current Version | Previous Version | Graphics & Text | Print | Product List | Glossary On
Versions: 1 2 3 4 5 6 7 8 9 10 11 12 13 14 15 16 17 18 19 20 21 22 23 24 25 26 27 28 29 30 31 32 33 34 35 36 37 38 39 40 41 42 43 44 45 46 47 48 49 50
000
ASUS43 KLOT 270121
RWRIL

ILLINOIS REGIONAL WEATHER ROUNDUP
NATIONAL WEATHER SERVICE CHICAGO/ROMEOVILLE IL
800 PM CDT TUE MAY 26 2015

NOTE: "FAIR" INDICATES FEW OR NO CLOUDS BELOW 12,000 FEET WITH NO
SIGNIFICANT WEATHER AND/OR OBSTRUCTIONS TO VISIBILITY.

* THESE STATIONS ARE NOT UNDER NWS QUALITY CONTROL. THEY ALSO MAY NOT
  REPORT WEATHER SUCH AS PRECIPITATION OR FOG.

ILZ001-002-007-009-015-016-024-270200-
NORTHWEST ILLINOIS

CITY           SKY/WX    TMP DP  RH WIND       PRES   REMARKS
MOLINE         LGT RAIN  69  61  75 W9        29.79R
STERLING*      CLOUDY    72  61  68 SW8       29.81R
SAVANNA*       CLEAR     71  59  66 SW9       29.78R
$$

ILZ003-004-008-010-011-017-018-270200-
NORTH CENTRAL ILLINOIS

CITY           SKY/WX    TMP DP  RH WIND       PRES   REMARKS
ROCKFORD       PTCLDY    70  58  65 W9G23     29.80R
FREEPORT*      PTCLDY    68  59  73 W9        29.79S
ROCHELLE*      PTCLDY    68  61  79 SW10      29.81R
DE KALB*       PTCLDY    67  59  74 SW13      29.82R
PERU*          PTCLDY    72  60  66 SW8       29.83R
$$

ILZ005-006-012>014-019>023-270200-
NORTHEAST ILLINOIS

CITY           SKY/WX    TMP DP  RH WIND       PRES   REMARKS
CHICAGO-OHARE  PTCLDY    69  62  78 SW12      29.79R
CHICAGO-MIDWAY MOCLDY    71  63  75 SW12      29.81R
AURORA         CLEAR     70  60  70 SW10      29.82R
LANSING*       CLEAR     71  59  67 SW15      29.83S
JOLIET*        CLEAR     73  61  66 SW7       29.83R
WAUKEGAN       PTCLDY    70  58  65 SW13G24   29.76R
DUPAGE AIRPORT PTCLDY    69  62  78 SW13      29.80R
KANKAKEE*      PTCLDY    70  64  82 SW10      29.86S
WHEELING       PTCLDY    71  61  70 SW10      29.80R
MORRIS*        CLEAR     71  60  69 SW10      29.81S
ROMEOVILLE*    CLEAR     70  59  67 SW12G20   29.83R
NORTHERLY ISL    N/A     70  60  70 S5          N/A
$$

LMZ740>746-270200-
SOUTHERN LAKE MICHIGAN

STATION/POSITION SKY/WX   TEMP    WIND        PRES    VSBY  WAVE
                          AIR SEA DIR/SP/G                  HT/PER
                          (F)     (DEG/KT/KT) (MB)    (MI)  (FT/S)
SOUTHERN BUOY              46 38  200/ 12/ 12 1008.7R         2/ 4
HARRISON CRIB              69     210/ 18/ 23   N/A
BURNHAM HARBOR             70     210/  5/ 19   N/A
CALUMET HARBOR             72     210/ 12/ 18   N/A
BURNS HARBOR               73     220/ 20/ 28 1009.8
MICHIGAN CITY              71     200/ 22/ 27   N/A
MICHIGAN CITY 6N           62 52  240/ 14/ 17   N/A           3/ 4
ST. JOSEPH                 62 55  250/ 12/ 14   N/A           2/ 3
$$

ILZ025>027-034>036-040-047-049-050-058-095>099-270200-
WEST-CENTRAL ILLINOIS

CITY           SKY/WX    TMP DP  RH WIND       PRES   REMARKS
QUINCY         CLOUDY    74  60  61 SW12      29.85R
GALESBURG*     PTCLDY    70  62  75 S7        29.83R
MACOMB*        CLOUDY    73  62  68 S6        29.85R
JACKSONVILLE*  MOCLDY    76  62  61 S12       29.88R
PITTSFIELD*    CLEAR     75  61  61 S8        29.88S
$$

ILZ028>032-037-038-041>044-048-051>054-059>061-270200-
CENTRAL ILLINOIS

CITY           SKY/WX    TMP DP  RH WIND       PRES   REMARKS
PONTIAC        CLEAR     73  64  72 SW8       29.86R
BLOOMINGTON    PTCLDY    71  64  78 SW12      29.89R
DECATUR        CLEAR     72  62  71 SW13      29.90S
PEORIA         PTCLDY    73  61  65 SW9       29.84R
LACON*         MOCLDY    72  60  67 SW5       29.83R
LINCOLN*       PTCLDY    74  62  65 S3        29.85S
SPRINGFIELD    CLEAR     75  61  61 SW9       29.89R
TAYLORVILLE    CLEAR     70  63  78 S9        29.91R
$$

ILZ033-039-045-046-055>057-062-063-270200-
EAST-CENTRAL ILLINOIS

CITY           SKY/WX    TMP DP  RH WIND       PRES   REMARKS
CHAMPAIGN      PTCLDY    72  61  68 SW15      29.90F
DANVILLE*      PTCLDY    70  62  75 SW10      29.89R
RANTOUL*       PTCLDY    73  63  72 SW9       29.89S
MATTOON        CLEAR     72  59  63 SW8       29.92S
PARIS*         MOCLDY    74  59  59 SW16G22   29.93R
$$

ILZ079-100>102-270200-
SOUTHWEST ILLINOIS

CITY           SKY/WX    TMP DP  RH WIND       PRES   REMARKS
ALTON          PTCLDY    75  64  69 S12       29.93R
BELLEVILLE     CLEAR     74  63  69 S8        29.93R
CAHOKIA*       CLEAR     76  60  57 S7        29.93R
SPARTA*        CLEAR     73  61  65 SW7       29.97R
$$

ILZ064>066-069>071-074>076-080>082-084>086-088>090-092>094-270200-
SOUTH-CENTRAL ILLINOIS

CITY           SKY/WX    TMP DP  RH WIND       PRES   REMARKS
CARBONDALE     CLEAR     72  62  71 S9        29.98R
CAIRO*         CLEAR     72  64  75 S7        30.01S
EFFINGHAM*     CLEAR     73  56  53 S9        29.96S
MARION         CLEAR     72  64  78 S9        29.99S
MT. VERNON     CLEAR     72  59  64 S8        29.98R
CENTRALIA*     CLEAR     73  58  57 SW9       29.96R
SALEM*         CLEAR     76  58  54 SW10      29.96R
METROPOLIS*    CLEAR     73  64  73 SW6       30.01R
$$

ILZ067-068-072-073-078-083-087-091-270200-
SOUTHEAST ILLINOIS

CITY           SKY/WX    TMP DP  RH WIND       PRES   REMARKS
LAWRENCEVILLE  PTCLDY    74  60  61 SW15      29.96R
FLORA*         PTCLDY    73  61  66 SW10      29.96S
FAIRFIELD*     CLEAR     73  62  68 S9        29.96R
HARRISBURG*    CLEAR     73  62  68 SW9       30.00R
ROBINSON*      PTCLDY    74  59  58 SW10      29.95S
CARMI*         PTCLDY    73  57  56 SW9       29.98R
$$

ABBREVIATIONS USED IN REMARKS
   TC - TEMPERATURE IN CELSIUS
  WCI - WIND CHILL INDEX
   HX - HEAT INDEX
  VSB - VISIBILITY
$$



USA.gov is the U.S. government's official web portal to all federal, state and local government web resources and services.